Masthead Graphic

Historical weather data from Belfast International Airport

The table below shows the weather reports for the last 24 hours taken from the METAR weather bulletins issued by Belfast International Airport. Readings should be at 30 min intervals however they are not always available

Date Time Pressure mb Temp. Wind Kts Wind Dir. Gusts Kts Conditions
20/05/2019 21:50:00 1018 8 4 350 clear skies
20/05/2019 21:20:00 1018 9 2 Variable clear skies
20/05/2019 20:20:00 1017 11 6 330 clear skies
20/05/2019 19:50:00 1017 11 8 340 partly cloudy
20/05/2019 19:20:00 1017 12 7 330 partly cloudy
20/05/2019 18:50:00 1017 12 7 320 clear skies
20/05/2019 18:20:00 1017 12 8 330 scattered clouds
20/05/2019 17:50:00 1017 13 10 330 scattered clouds
20/05/2019 17:20:00 1017 12 10 330 mostly cloudy
20/05/2019 16:50:00 1016 13 10 320 scattered clouds
20/05/2019 16:20:00 1016 15 9 310 scattered clouds
20/05/2019 15:50:00 1016 14 8 330 scattered clouds
20/05/2019 14:50:00 1016 12 6 340 mostly cloudy
rain
20/05/2019 14:20:00 1016 14 6 320 mostly cloudy
20/05/2019 13:50:00 1016 13 8 320 scattered clouds
20/05/2019 13:20:00 1015 14 5 320 scattered clouds
20/05/2019 12:50:00 1015 13 8 310 mostly cloudy
20/05/2019 12:20:00 1015 12 7 280 mostly cloudy
20/05/2019 11:50:00 1015 13 6 280 partly cloudy
20/05/2019 11:20:00 1015 13 7 290 scattered clouds
20/05/2019 10:50:00 1015 12 6 250 mostly cloudy
20/05/2019 10:20:00 1015 11 5 260 mostly cloudy
20/05/2019 09:50:00 1015 11 6 280 mostly cloudy
20/05/2019 09:20:00 1015 11 6 260 mostly cloudy
nearby showers
First Previous